Regional Weather Roundup
Issued by NWS

Home | Current Version | Previous Version | Graphics & Text | Print | Product List | Glossary On
Versions: 1 2 3 4 5 6 7 8 9 10 11 12 13 14 15 16 17 18 19 20 21 22 23 24 25 26 27 28 29 30 31 32 33 34 35 36 37 38 39 40 41 42 43 44 45 46 47 48 49 50
000
ASUS43 KBIS 252201
RWRND

NORTH DAKOTA REGIONAL WEATHER ROUNDUP
NATIONAL WEATHER SERVICE BISMARCK ND
400 PM CST SUN JAN 25 2015

NOTE: "FAIR" INDICATES FEW OR NO CLOUDS BELOW 12,000 FEET WITH NO
SIGNIFICANT WEATHER AND/OR OBSTRUCTIONS TO VISIBILITY.


NDZ001>003-009>011-017-252300-
NORTHWEST NORTH DAKOTA

CITY           SKY/WX    TMP DP  RH WIND       PRES   REMARKS
WILLISTON      CLOUDY    42  31  64 S10       29.83F
MINOT          CLOUDY    34  30  85 S13       29.83F
MINOT AFB      CLOUDY    34  34  99 S9        29.81F
$$

NDZ018>021-031>035-040>046-252300-
SOUTHWEST NORTH DAKOTA

CITY           SKY/WX    TMP DP  RH WIND       PRES   REMARKS
BISMARCK       CLOUDY    37  32  82 SW5       29.93F
DICKINSON      MOSUNNY   44  30  57 SW10      29.86F
GARRISON         N/A     35  31  85 SW8       29.87F
HETTINGER ARPT CLOUDY    45  28  51 S6        29.91F
$$

NDZ004>008-012>016-024-026-027-054-252300-
NORTHEAST NORTH DAKOTA

CITY           SKY/WX    TMP DP  RH WIND       PRES   REMARKS
GRAND FORKS    CLOUDY    26  16  65 S9        29.96F WCI  17
GRND FRKS AFB  CLOUDY    26  18  72 SW8       29.96F WCI  18
DEVILS LAKE    CLOUDY    25  19  80 SW10      29.89F WCI  15
$$

NDZ022-023-025-028>030-036>039-047>053-252300-
SOUTHEAST NORTH DAKOTA

CITY           SKY/WX    TMP DP  RH WIND       PRES   REMARKS
FARGO          MOSUNNY   26  16  65 S6        29.99F WCI  19
JAMESTOWN      CLOUDY    27  23  85 S8        29.93F WCI  19
$$




USA.gov is the U.S. government's official web portal to all federal, state and local government web resources and services.